Content
SEND FEEDBACK

Daily
Averages
Monthly
Summary
United States of America

ST. LOUIS, MISSOURI


Home > North America > United States > Missouri
Elevation: 535 feet     Latitude: 38 45N     Longitude: 090 22W

WEATHER
 
SELECT A DAY
Number of Records: 199,614;   Date Range: 1/1/95 - 10/19/14
 
SHARE

PRINT THIS DATA

[ ← Previous Day ]
WEATHER ALMANAC - JULY 6, 2013
[ Next Day → ]
[ °C ]   °F
Weather ElementAverageHighLow
Temperature76.9 °F87.1 °F (1:54 pm)64.9 °F (5:54 am)
Dewpoint64.2 °F68 °F (7:54 am)57.9 °F (6:54 pm)
Humidity67.3 %93 % (2:54 am)43 % (2:54 pm)
Barometer29.99 in30.03 in (6:54 am)29.94 in (4:54 pm)
Wind Speed3.6 mph17.3 mph (6:32 pm)
Wind Gust23 mph (6:32 pm)
Weather ElementAverage
Visibility8.5 mi
Wind DirectionENE (70.4 °)

Weather ElementTotal
Precipitation---
Cooling Degree Days11 (Base 65)
Growing Degree Days26 (Base 50)
Averaged from 26 records on July 6, 2013
WEATHER CONDITIONS BREAKOUT
WIND DIRECTION BREAKOUT
WEATHER BY HOUR - JULY 6, 2013
[ °C ]   °F
Local TimeTemperatureDewpointHumidityBarometerVisibilityWind DirectionWind SpeedGust SpeedPrecipitationEventsConditions
1:54 AM68.0 °F64.9 °F90 %30.00 in6.0 miCalmClear
2:54 AM66.0 °F64.0 °F93 %30.00 in3.0 miSW (220°)3.5 mphClear
3:54 AM66.9 °F64.9 °F93 %30.00 in3.0 miCalmClear
4:54 AM66.0 °F64.0 °F93 %30.00 in4.0 miCalmClear
5:54 AM64.9 °F63.0 °F93 %30.01 in4.0 miCalmMostly Cloudy
6:54 AM66.9 °F64.9 °F93 %30.03 in4.0 miCalmClear
7:54 AM72.0 °F68.0 °F87 %30.02 in8.0 miCalmPartly Cloudy
8:54 AM77.0 °F68.0 °F74 %30.03 in10.0 miSSW (200°)4.6 mphPartly Cloudy
9:54 AM79.0 °F68.0 °F69 %30.02 in10.0 miSouth (180°)6.9 mphClear
10:54 AM82.0 °F66.9 °F60 %30.02 in10.0 miVariable4.6 mphClear
11:54 AM84.0 °F66.0 °F55 %30.01 in10.0 miSouth (170°)3.5 mphPartly Cloudy
12:54 PM86.0 °F62.1 °F44 %29.99 in10.0 miCalmPartly Cloudy
1:54 PM87.1 °F63.0 °F44 %29.97 in10.0 miCalmScattered Clouds
2:54 PM87.1 °F62.1 °F43 %29.96 in10.0 miCalmMostly Cloudy
3:54 PM87.1 °F64.0 °F46 %29.95 in10.0 miVariable4.6 mphScattered Clouds
4:54 PM87.1 °F63.0 °F44 %29.94 in10.0 miCalmMostly Cloudy
5:54 PM87.1 °F64.9 °F48 %29.94 in10.0 miVariable6.9 mphMostly Cloudy
6:03 PM86.0 °F68.0 °F55 %29.96 in10.0 miSW (220°)8.1 mphThunderstormMostly Cloudy
6:32 PM80.6 °F60.8 °F51 %29.96 in10.0 miSSW (200°)17.3 mph23.0 mphThunderstormMostly Cloudy
6:54 PM80.1 °F57.9 °F47 %29.96 in10.0 miSSE (160°)9.2 mphThunderstormThunderstorm
7:54 PM73.0 °F64.9 °F76 %29.96 in10.0 miEast (100°)4.6 mphThunderstormMostly Cloudy
8:54 PM73.0 °F64.0 °F73 %29.98 in10.0 miCalmThunderstormClear
9:00 PM73.4 °F64.4 °F73 %30.00 in10.0 miEast (90°)4.6 mphScattered Clouds
9:54 PM73.0 °F62.1 °F68 %29.98 in10.0 miSE (140°)10.4 mphScattered Clouds
10:54 PM73.0 °F62.1 °F68 %30.01 in10.0 miCalmClear
11:54 PM72.0 °F62.1 °F71 %30.00 in10.0 miSSE (150°)3.5 mphClear
Hourly data recorded from KSUS, located miles away from St. Louis, Missouri







STORIES FROM OUR PARTNERS